TimeEST,TemperatureF,Dew PointF,Humidity,Sea Level PressureIn,VisibilityMPH,Wind Direction,Wind SpeedMPH,Gust SpeedMPH,PrecipitationIn,Events,Conditions,WindDirDegrees,DateUTC
12:49 AM,24.8,24.8,100,29.75,3.0,WSW,6.9,-,N/A,Snow,Light Snow,250,1997-12-31 05:49:00
1:47 AM,24.8,24.8,100,29.78,5.0,West,3.5,-,N/A,Snow,Light Snow,260,1997-12-31 06:47:00
2:47 AM,24.8,21.2,86,29.80,10.0,West,3.5,-,N/A,Snow,Snow Showers,260,1997-12-31 07:47:00
3:49 AM,24.8,21.2,86,29.82,5.0,WSW,3.5,-,N/A,Snow,Light Snow,250,1997-12-31 08:49:00
4:47 AM,24.8,21.2,86,29.86,5.0,West,3.5,-,N/A,Snow,Light Snow,260,1997-12-31 09:47:00
5:48 AM,24.8,21.2,86,29.89,4.0,Variable,4.6,-,N/A,Snow,Light Snow,0,1997-12-31 10:48:00
6:49 AM,23.0,21.2,93,29.92,3.0,WSW,8.1,-,N/A,Snow,Light Snow,240,1997-12-31 11:49:00
7:45 AM,23.0,21.2,93,29.88,6.0,WSW,9.2,-,N/A,Snow,Light Snow,240,1997-12-31 12:45:00
8:45 AM,23.0,19.4,86,29.92,4.0,WSW,6.9,-,N/A,Snow,Light Snow,250,1997-12-31 13:45:00
9:45 AM,24.8,17.6,74,29.96,6.0,West,6.9,-,N/A,Snow,Light Snow,260,1997-12-31 14:45:00
10:45 AM,24.8,15.8,69,29.99,6.0,West,9.2,-,N/A,Snow,Light Snow,270,1997-12-31 15:45:00
11:45 AM,23.0,14.0,68,30.01,8.0,WNW,11.5,16.1,N/A,Snow,Light Snow,300,1997-12-31 16:45:00
12:45 PM,21.2,12.2,68,30.04,10.0,NW,11.5,17.3,N/A,Snow,Light Snow,320,1997-12-31 17:45:00
1:45 PM,23.0,8.6,54,30.07,25.0,WNW,11.5,-,N/A,,Mostly Cloudy,300,1997-12-31 18:45:00
2:45 PM,23.0,5.0,46,30.10,25.0,West,11.5,-,N/A,,Scattered Clouds,280,1997-12-31 19:45:00
3:45 PM,23.0,3.2,43,30.14,20.0,WNW,8.1,16.1,N/A,,Scattered Clouds,300,1997-12-31 20:45:00
4:45 PM,21.2,5.0,50,30.19,20.0,West,11.5,-,N/A,,Scattered Clouds,280,1997-12-31 21:45:00
6:45 PM,19.4,5.0,54,30.27,20.0,West,9.2,-,N/A,,Clear,270,1997-12-31 23:45:00
8:45 PM,17.6,1.4,49,30.35,20.0,WNW,8.1,-,N/A,,Clear,300,1998-01-01 01:45:00
9:45 PM,17.6,1.4,49,30.38,20.0,West,5.8,-,N/A,,Clear,270,1998-01-01 02:45:00
10:45 PM,14.0,3.2,62,30.39,20.0,WSW,4.6,-,N/A,,Clear,240,1998-01-01 03:45:00
11:49 PM,10.4,3.2,73,30.49,20.0,Calm,Calm,-,N/A,,Clear,0,1998-01-01 04:49:00